Weather History for Athens, OH

Change the Weather History Date:

Friday, November 4, 2011

  Actual Average (KPKB) Record (KPKB)
Temperature  
Mean Temperature 50 °F 50 °F  
Max Temperature 59 °F 60 °F 80 °F (2003)
Min Temperature 41 °F 39 °F 17 °F (1991)
Degree Days  
Heating Degree Days 14 16  
Month to date heating degree days 61  
Cooling Degree Days 0 0  
Month to date cooling degree days 0  
Moisture  
Dew Point 33 °F    
Average Humidity 55    
Maximum Humidity 82    
Minimum Humidity 25    
Precipitation  
Precipitation 0.00 in 0.10 in 0.53 in (2004)
Month to date precipitation 0.44  
Sea Level Pressure  
Sea Level Pressure 30.08 in    
Wind  
Wind Speed 8 mph (NNE)    
Max Wind Speed 17 mph    
Max Gust Speed 26 mph    
Visibility 10 miles    
Events      
T = Trace of Precipitation, MM = Missing Value Source: NWS Daily Summary

Daily Weather History Graph

Daily Weather History Graph

Search for Another Location

Airport:

Trip Planner

Search our weather history database for the weather conditions in past years. The results will help you decide how hot, cold, wet, or windy it might be!

Date:

Astronomy

Nov. 04, 2011 Rise Set
Actual Time 7:59 AM EDT 6:24 PM EDT
Civil Twilight 7:31 AM EDT 6:52 PM EDT
Nautical Twilight 6:59 AM EDT 7:24 PM EDT
Astronomical Twilight 6:28 AM EDT 7:55 PM EDT
Moon 3:13 PM EDT (11/4) 2:12 AM EDT (11/4)
Length of Visible Light 11h 20m
Length of Day
10h 25m
Waxing Gibbous, 69% of the Moon is Illuminated
Nov 4
Waxing Gibbous
Nov 10
Full
Nov 18
Last Quarter
Nov 25
New
Dec 2
First Quarter

Hourly Weather History & Observations

Time (EDT) Temp. Windchill Dew Point Humidity Pressure Visibility Wind Dir Wind Speed Gust Speed Precip Events Conditions
12:15 AM 50.0 °F - 42.8 °F 76% 29.90 in 10.0 mi Calm Calm - N/A   Overcast
1:15 AM 51.8 °F - 37.4 °F 58% 29.91 in 10.0 mi NNE 4.6 mph - N/A   Overcast
1:55 AM 51.8 °F - 37.4 °F 58% 29.91 in 10.0 mi Calm Calm - N/A   Clear
2:15 AM 51.8 °F - 37.4 °F 58% 29.91 in 10.0 mi NNE 5.8 mph - N/A   Scattered Clouds
2:35 AM 51.8 °F - 37.4 °F 58% 29.92 in 10.0 mi North 4.6 mph - N/A   Scattered Clouds
2:55 AM 51.8 °F - 39.2 °F 62% 29.92 in 10.0 mi NNE 9.2 mph - N/A   Scattered Clouds
3:15 AM 51.8 °F - 39.2 °F 62% 29.92 in 10.0 mi NNE 12.7 mph - N/A   Clear
3:35 AM 50.0 °F - 41.0 °F 71% 29.93 in 10.0 mi NNE 10.4 mph 16.1 mph N/A   Scattered Clouds
3:55 AM 50.0 °F - 41.0 °F 71% 29.93 in 10.0 mi NNE 11.5 mph 18.4 mph N/A   Clear
4:15 AM 50.0 °F - 42.8 °F 76% 29.93 in 10.0 mi NNE 10.4 mph - N/A   Clear
4:35 AM 50.0 °F - 42.8 °F 76% 29.94 in 10.0 mi NNE 8.1 mph - N/A   Clear
5:15 AM 50.0 °F - 42.8 °F 76% 29.94 in 10.0 mi NNE 8.1 mph - N/A   Scattered Clouds
5:35 AM 50.0 °F - 42.8 °F 76% 29.95 in 10.0 mi North 9.2 mph - N/A   Mostly Cloudy
5:55 AM 50.0 °F - 42.8 °F 76% 29.97 in 10.0 mi NNE 8.1 mph - N/A   Scattered Clouds
6:15 AM 50.0 °F - 42.8 °F 76% 29.98 in 10.0 mi NNE 12.7 mph - N/A   Mostly Cloudy
6:35 AM 50.0 °F - 42.8 °F 76% 29.98 in 10.0 mi North 8.1 mph - N/A   Scattered Clouds
6:55 AM 48.2 °F - 42.8 °F 82% 29.99 in 10.0 mi NNE 9.2 mph - N/A   Clear
7:15 AM 48.2 °F - 41.0 °F 76% 30.00 in 10.0 mi NNE 15.0 mph 24.2 mph N/A   Clear
7:55 AM 48.2 °F - 41.0 °F 76% 30.02 in 10.0 mi NNE 15.0 mph 20.7 mph N/A   Overcast
8:15 AM 48.2 °F - 41.0 °F 76% 30.04 in 10.0 mi NNE 16.1 mph 21.9 mph N/A   Overcast
8:35 AM 48.2 °F - 41.0 °F 76% 30.06 in 10.0 mi NNE 12.7 mph 18.4 mph N/A   Overcast
8:55 AM 48.2 °F - 41.0 °F 76% 30.07 in 10.0 mi NNE 11.5 mph 19.6 mph N/A   Overcast
9:15 AM 48.2 °F - 41.0 °F 76% 30.08 in 10.0 mi NNE 11.5 mph 18.4 mph N/A   Overcast
9:35 AM 48.2 °F - 41.0 °F 76% 30.09 in 10.0 mi NNE 12.7 mph 19.6 mph N/A   Overcast
9:55 AM 48.2 °F - 41.0 °F 76% 30.10 in 10.0 mi NE 12.7 mph 17.3 mph N/A   Overcast
10:15 AM 48.2 °F - 39.2 °F 71% 30.09 in 10.0 mi NE 12.7 mph - N/A   Overcast
10:35 AM 50.0 °F - 37.4 °F 62% 30.09 in 10.0 mi NE 17.3 mph 26.5 mph N/A   Scattered Clouds
10:55 AM 51.8 °F - 35.6 °F 54% 30.10 in 10.0 mi NE 11.5 mph 21.9 mph N/A   Clear
11:15 AM 51.8 °F - 33.8 °F 50% 30.11 in 10.0 mi NE 16.1 mph 21.9 mph N/A   Clear
11:35 AM 53.6 °F - 32.0 °F 44% 30.11 in 10.0 mi NNE 9.2 mph 21.9 mph N/A   Clear
11:55 AM 53.6 °F - 32.0 °F 44% 30.11 in 10.0 mi NE 11.5 mph 18.4 mph N/A   Clear
12:15 PM 55.4 °F - 32.0 °F 41% 30.11 in 10.0 mi NE 12.7 mph - N/A   Clear
12:35 PM 55.4 °F - 30.2 °F 38% 30.11 in 10.0 mi NNE 11.5 mph 17.3 mph N/A   Clear
12:55 PM 55.4 °F - 28.4 °F 36% 30.11 in 10.0 mi NNE 11.5 mph 19.6 mph N/A   Clear
1:55 PM 57.2 °F - 28.4 °F 33% 30.11 in 10.0 mi North 10.4 mph - N/A   Clear
2:35 PM 59.0 °F - 26.6 °F 29% 30.11 in 10.0 mi NNE 16.1 mph 19.6 mph N/A   Clear
3:15 PM 59.0 °F - 23.0 °F 25% 30.11 in 10.0 mi NE 11.5 mph 18.4 mph N/A   Clear
3:35 PM 59.0 °F - 23.0 °F 25% 30.11 in 10.0 mi North 10.4 mph 18.4 mph N/A   Clear
4:15 PM 57.2 °F - 23.0 °F 27% 30.13 in 10.0 mi North 9.2 mph - N/A   Clear
4:35 PM 57.2 °F - 23.0 °F 27% 30.13 in 10.0 mi NNE 15.0 mph 19.6 mph N/A   Clear
4:55 PM 55.4 °F - 23.0 °F 29% 30.13 in 10.0 mi NNE 8.1 mph - N/A   Clear
5:35 PM 55.4 °F - 24.8 °F 31% 30.15 in 10.0 mi NNE 10.4 mph - N/A   Clear
5:55 PM 53.6 °F - 26.6 °F 35% 30.15 in 10.0 mi North 9.2 mph - N/A   Clear
6:15 PM 51.8 °F - 26.6 °F 38% 30.16 in 10.0 mi North 6.9 mph - N/A   Clear
6:35 PM 51.8 °F - 26.6 °F 38% 30.17 in 10.0 mi North 6.9 mph - N/A   Clear
6:55 PM 50.0 °F - 26.6 °F 40% 30.19 in 10.0 mi NNE 6.9 mph - N/A   Clear
7:15 PM 50.0 °F - 26.6 °F 40% 30.19 in 10.0 mi North 5.8 mph - N/A   Clear
7:35 PM 48.2 °F - 28.4 °F 46% 30.20 in 10.0 mi North 4.6 mph - N/A   Clear
7:55 PM 46.4 °F 42.4 °F 26.6 °F 46% 30.20 in 10.0 mi NNE 8.1 mph - N/A   Clear
8:15 PM 46.4 °F 43.5 °F 26.6 °F 46% 30.20 in 10.0 mi NNE 5.8 mph - N/A   Clear
8:35 PM 46.4 °F 42.9 °F 26.6 °F 46% 30.21 in 10.0 mi NNE 6.9 mph - N/A   Clear
8:55 PM 44.6 °F 42.2 °F 26.6 °F 49% 30.22 in 10.0 mi NNE 4.6 mph - N/A   Clear
9:15 PM 44.6 °F 42.2 °F 24.8 °F 46% 30.22 in 10.0 mi North 4.6 mph - N/A   Clear
9:35 PM 44.6 °F 41.4 °F 24.8 °F 46% 30.23 in 10.0 mi NNE 5.8 mph - N/A   Clear
9:55 PM 44.6 °F 41.4 °F 24.8 °F 46% 30.24 in 10.0 mi NNE 5.8 mph - N/A   Clear
10:15 PM 42.8 °F 39.3 °F 24.8 °F 49% 30.25 in 10.0 mi NNE 5.8 mph - N/A   Clear
10:35 PM 42.8 °F 36.6 °F 24.8 °F 49% 30.25 in 10.0 mi NE 11.5 mph - N/A   Clear
10:55 PM 42.8 °F 37.5 °F 23.0 °F 46% 30.25 in 10.0 mi NE 9.2 mph - N/A   Clear
11:15 PM 41.0 °F 35.8 °F 24.8 °F 53% 30.25 in 10.0 mi NE 8.1 mph - N/A   Clear
11:35 PM 41.0 °F 36.4 °F 24.8 °F 53% 30.25 in 10.0 mi ENE 6.9 mph - N/A   Clear
11:55 PM 37.4 °F 32.1 °F 24.8 °F 60% 30.25 in 10.0 mi NE 6.9 mph - N/A   Clear